Regional Weather Roundup
Issued by NWS Burlington, VT

Home | Current Version | Previous Version | Text Only | Print | Product List | Glossary On
Versions: 1 2 3 4 5 6 7 8 9 10 11 12 13 14 15 16 17 18 19 20 21 22 23 24 25 26 27 28 29 30 31 32 33 34 35 36 37 38 39 40 41 42 43 44 45 46 47 48 49 50
000
ASUS41 KBTV 280230
RWRBTV
VERMONT REGIONAL WEATHER ROUNDUP
NATIONAL WEATHER SERVICE BURLINGTON VT
1000 PM EDT THU AUG 27 2015

NOTE: "FAIR" INDICATES FEW OR NO CLOUDS BELOW 12,000 FEET WITH NO
SIGNIFICANT WEATHER AND/OR OBSTRUCTIONS TO VISIBILITY.

* THESE REPORTS ARE NOT UNDER NWS QUALITY CONTROL AND/OR DO NOT
  REPORT WEATHER SUCH AS PRECIPITATION AND FOG.

VTZ001>019-280300-
_____VERMONT_____


CITY           SKY/WX    TMP DP  RH WIND       PRES   REMARKS
BURLINGTON     MOCLDY    67  54  63 NW3       30.10R
MONTPELIER     CLEAR     57  52  83 W5        30.14R
MORRISVILLE    MOCLDY    59  54  83 CALM      30.11R
ST. JOHNSBURY*   N/A     60  55  83 MISG      30.07R
LYNDONVILLE*   MOCLDY    58  54  88 CALM      30.11S
MIDDLEBURY*    FAIR      57  55  92 CALM      30.11R
RUTLAND*       CLEAR     55  50  82 SE3       30.12R
SPRINGFIELD    CLEAR     57  54  89 CALM      30.10R
HIGHGATE*      FAIR      63  56  79 W3        30.08S
NEWPORT*       CLOUDY    59  55  88 SE3       30.10R
BENNINGTON     CLOUDY    64  56  75 SW3       30.12R
SUTTON*          N/A     57 N/A N/A MISG        N/A
GALLUP MILLS*    N/A     52 N/A N/A MISG        N/A
MT. MANSFIELD*   N/A     50 N/A N/A NW21        N/A

_____LAKE CHAMPLAIN_____


CITY           SKY/WX    TMP DP  RH WIND       PRES   REMARKS
COLCHESTER RF*   N/A     68  57  68 W12         N/A
DIAMOND ISL*     N/A     68  54  60 NW9         N/A

$$

NYZ007-026>031-035-052-083-280300-
_____NORTHERN NEW YORK_____


CITY           SKY/WX    TMP DP  RH WIND       PRES   REMARKS
PLATTSBURGH    PTCLDY    58  55  90 CALM      30.09R
SARANAC LAKE   PTCLDY    57  53  86 CALM      30.13R
MASSENA        CLOUDY    63  56  78 W5        30.12R
OGDENSBURG*    CLEAR     57  57 100 CALM      30.12S
POTSDAM*       CLEAR     59  59 100 CALM      30.12S
STARK FALLS*     N/A     63 N/A N/A SW3         N/A
WATERTOWN      CLEAR     55  53  93 CALM      30.13R
FT DRUM        CLEAR     58  54  85 SW3       30.13S
ALBANY         MOCLDY    66  54  65 W14       30.11R
GLENS FALLS    CLEAR     61  51  70 NW6       30.10R

$$
NHZ002-005-011-280300-
_____NEW HAMPSHIRE_____


CITY           SKY/WX    TMP DP  RH WIND       PRES   REMARKS
LEBANON        CLEAR     56  52  86 CALM      30.09R
KEENE          CLEAR     57  52  82 CALM      30.10R
MT WASHINGTON  FOG       43  43 100 NW37        N/A  VSB 1/16WCI  31
PLYMOUTH       FAIR      56  54  93 CALM      30.08R
WHITEFIELD     MOCLDY    57  53  86 CALM      30.09R

$$

_____REGIONAL QUEBEC LOCATIONS_____


CITY           SKY/WX    TMP DP  RH WIND       PRES   REMARKS
MONTREAL       PTCLDY    64  57  77 NW7       30.08R
QUEBEC CITY    PTCLDY    63  54  72 NW8       30.01R
SHERBROOKE     MOCLDY    59  55  88 SW6       30.06R

_____REGIONAL ONTARIO LOCATIONS_____


CITY           SKY/WX    TMP DP  RH WIND       PRES   REMARKS
OTTAWA         CLEAR     59  52  77 NW6       30.12R

______KEY______
VSB  - VISIBILITY IN MILES
WCI  - WIND CHILL INDEX
HX   - HEAT INDEX
$$
NNNN


USA.gov is the U.S. government's official web portal to all federal, state and local government web resources and services.